Change the Weather History Date:

Tuesday, January 10, 2012

  Actual Average Record
Temperature  
Mean Temperature 31 °F 16 °F  
Max Temperature 47 °F 30 °F 61 °F (1995)
Min Temperature 14 °F 3 °F -38 °F (1962)
Degree Days  
Heating Degree Days 34 49  
Month to date heating degree days 372 490  
Since 1 July heating degree days 3359 3853  
Cooling Degree Days 0 0  
Month to date cooling degree days 0 0  
Year to date cooling degree days 0 0  
Moisture  
Dew Point 20 °F    
Average Humidity 65    
Maximum Humidity 92    
Minimum Humidity 38    
Precipitation  
Precipitation 0.00 in 0.01 in 0.32 in (1997)
Month to date precipitation 0.00 0.08  
Year to date precipitation 0.00 0.08  
Sea Level Pressure  
Sea Level Pressure 30.04 in    
Wind  
Wind Speed 8 mph (NW)    
Max Wind Speed 28 mph    
Max Gust Speed 40 mph    
Visibility 10 miles    
Events      
T = Trace of Precipitation, MM = Missing Value Source: NWS Daily Summary

Daily Weather History Graph

Daily Weather History Graph

Search for Another Location

Airport or City:

Trip Planner

Search our weather history database for the weather conditions in past years. The results will help you decide how hot, cold, wet, or windy it might be!

Date:

Astronomy

Jan. 10, 2012 Rise Set
Actual Time 7:45 AM MST 4:53 PM MST
Civil Twilight 7:12 AM MST 5:25 PM MST
Nautical Twilight 6:37 AM MST 6:01 PM MST
Astronomical Twilight 6:02 AM MST 6:36 PM MST
Moon 6:53 PM MST (1/10) 8:21 AM MST (1/10)
Length of Visible Light 10h 12m
Length of Day
9h 07m
Full, 98% of the Moon is Illuminated
Jan 10
Full
Jan 16
Last Quarter
Jan 23
New
Jan 30
First Quarter
Feb 7
Full

Hourly Weather History & Observations

Time (MST) Temp. Windchill Dew Point Humidity Pressure Visibility Wind Dir Wind Speed Gust Speed Precip Events Conditions
12:53 AM 21.0 °F 14.6 °F 18.0 °F 88% 30.18 in 10.0 mi SW 4.6 mph - N/A   Clear
1:53 AM 16.0 °F 10.4 °F 12.9 °F 88% 30.16 in 10.0 mi South 3.5 mph - N/A   Clear
2:53 AM 18.0 °F - 16.0 °F 92% 30.15 in 10.0 mi Calm Calm - N/A   Clear
3:53 AM 15.1 °F - 12.9 °F 91% 30.15 in 10.0 mi Calm Calm - N/A   Clear
4:53 AM 15.1 °F - 12.0 °F 88% 30.16 in 10.0 mi Calm Calm - N/A   Clear
5:53 AM 21.0 °F 14.6 °F 18.0 °F 88% 30.14 in 10.0 mi South 4.6 mph - N/A   Clear
6:53 AM 19.4 °F 8.6 °F 15.8 °F 86% 29.99 in 10.0 mi SW 9.2 mph - N/A   Clear
7:53 AM 19.9 °F - 17.1 °F 89% 30.11 in 10.0 mi Calm Calm - N/A   Clear
8:53 AM 21.0 °F - 18.0 °F 88% 30.10 in 10.0 mi Calm Calm - N/A   Clear
9:53 AM 26.1 °F - 21.0 °F 81% 30.07 in 10.0 mi Calm Calm - N/A   Clear
10:53 AM 30.9 °F 27.5 °F 24.1 °F 76% 30.02 in 10.0 mi SW 3.5 mph - N/A   Clear
11:53 AM 35.1 °F 31.0 °F 24.1 °F 64% 29.97 in 10.0 mi NW 4.6 mph - N/A   Clear
12:53 PM 39.9 °F - 23.0 °F 51% 29.89 in 10.0 mi Calm Calm - N/A   Clear
1:53 PM 45.0 °F 42.6 °F 23.0 °F 42% 29.87 in 10.0 mi NNW 4.6 mph - N/A   Scattered Clouds
2:53 PM 46.0 °F 43.1 °F 23.0 °F 40% 29.86 in 10.0 mi North 5.8 mph - N/A   Clear
3:53 PM 42.1 °F 39.2 °F 24.1 °F 49% 29.87 in 10.0 mi North 4.6 mph - N/A   Overcast
4:53 PM 39.9 °F - 23.0 °F 51% 29.92 in 10.0 mi Calm Calm - N/A   Overcast
5:53 PM 41.0 °F 34.3 °F 23.0 °F 49% 29.94 in 10.0 mi NNW 11.5 mph 21.9 mph N/A   Overcast
6:53 PM 37.9 °F 26.8 °F 26.1 °F 62% 29.95 in 10.0 mi North 24.2 mph 33.4 mph N/A   Overcast
7:53 PM 35.1 °F 23.3 °F 25.0 °F 67% 29.99 in 10.0 mi North 23.0 mph 34.5 mph N/A   Overcast
8:53 PM 32.0 °F 20.1 °F 24.1 °F 73% 30.04 in 10.0 mi NW 19.6 mph 29.9 mph N/A   Overcast
9:53 PM 30.0 °F 15.4 °F 19.9 °F 66% 30.08 in 10.0 mi NW 27.6 mph 35.7 mph N/A   Overcast
10:53 PM 26.1 °F 10.4 °F 19.0 °F 75% 30.14 in 10.0 mi NW 26.5 mph 36.8 mph N/A   Overcast
11:53 PM 24.1 °F 9.8 °F 16.0 °F 71% 30.18 in 10.0 mi NW 19.6 mph 34.5 mph N/A   Overcast